Falls City, NE

8:54 AM CST on February 25, 2017 (GMT -0600)
Brenner

Weather History for KFNB - July, 2012

Change the Weather History Date:

Thursday, July 19, 2012

  Actual Average Record
Temperature  
Mean Temperature 84 °F -  
Max Temperature 97 °F 91 °F 105 °F (1980)
Min Temperature 73 °F 67 °F 57 °F (2014)
Cooling Degree Days 20    
Growing Degree Days 34 (Base 50)    
Moisture  
Dew Point 70 °F    
Average Humidity 64    
Maximum Humidity 84    
Minimum Humidity 37    
Precipitation  
Precipitation 0.00 in - - ()
Sea Level Pressure  
Sea Level Pressure 29.93 in    
Wind  
Wind Speed 4 mph (East)    
Max Wind Speed 12 mph    
Max Gust Speed 20 mph    
Visibility 10 miles    
Events      
Averages and records for this station are not official NWS values.
T = Trace of Precipitation, MM = Missing Value Source: NWS Daily Summary

Daily Weather History Graph

Daily Weather History Graph

Search for Another Location

Airport or City:

Trip Planner

Search our weather history database for the weather conditions in past years. The results will help you decide how hot, cold, wet, or windy it might be!

Date:

Astronomy

Jul. 19, 2012 Rise Set
Actual Time 6:09 AM CDT 8:47 PM CDT
Civil Twilight 5:37 AM CDT 9:18 PM CDT
Nautical Twilight 4:58 AM CDT 9:58 PM CDT
Astronomical Twilight 4:14 AM CDT 10:42 PM CDT
Moon 6:45 AM CDT (7/19) 8:54 PM CDT (7/19)
Length of Visible Light 15h 40m
Length of Day
14h 37m
New Moon, 0% of the Moon is Illuminated
Jul 19
New Moon
Jul 26
First Quarter
Aug 1
Full
Aug 9
Last Quarter
Aug 17
New

Hourly Weather History & Observations

Time (CDT) Temp. Heat Index Dew Point Humidity Pressure Visibility Wind Dir Wind Speed Gust Speed Precip Events Conditions
12:53 AM 79.0 °F - 71.1 °F 77% 29.86 in 10.0 mi South 11.5 mph 19.6 mph N/A   Clear
1:53 AM 78.1 °F - 68.0 °F 71% 29.86 in 10.0 mi Calm Calm - N/A   Clear
2:53 AM 75.0 °F - 68.0 °F 79% 29.88 in 10.0 mi Calm Calm - N/A   Clear
3:53 AM 73.9 °F - 68.0 °F 82% 29.88 in 10.0 mi SSW 3.5 mph - N/A   Clear
4:53 AM 73.0 °F - 68.0 °F 84% 29.89 in 10.0 mi North 4.6 mph - N/A   Clear
5:53 AM 73.0 °F - 68.0 °F 84% 29.90 in 10.0 mi Calm Calm - N/A   Clear
6:53 AM 73.0 °F - 68.0 °F 84% 29.91 in 10.0 mi Calm Calm - N/A   Clear
7:53 AM 78.1 °F - 71.1 °F 79% 29.93 in 10.0 mi Calm Calm - N/A   Clear
8:53 AM 81.0 °F 85.8 °F 73.0 °F 77% 29.95 in 10.0 mi SSE 3.5 mph - N/A   Clear
9:53 AM 86.0 °F 91.5 °F 71.1 °F 61% 29.96 in 10.0 mi SE 3.5 mph - N/A   Clear
10:53 AM 88.0 °F 96.5 °F 73.9 °F 63% 29.97 in 10.0 mi East 4.6 mph - N/A   Clear
11:53 AM 90.0 °F 102.5 °F 77.0 °F 65% 29.97 in 10.0 mi East 5.8 mph - N/A   Clear
12:53 PM 93.9 °F 106.9 °F 75.9 °F 56% 29.96 in 10.0 mi NE 8.1 mph - N/A   Clear
1:53 PM 95.0 °F 104.5 °F 73.0 °F 49% 29.96 in 10.0 mi ENE 6.9 mph - N/A   Clear
2:53 PM 96.1 °F 103.5 °F 71.1 °F 44% 29.95 in 10.0 mi NE 9.2 mph - N/A   Clear
3:53 PM 96.1 °F 101.6 °F 69.1 °F 41% 29.94 in 9.0 mi ENE 8.1 mph - N/A   Clear
4:53 PM 96.1 °F 99.3 °F 66.0 °F 37% 29.93 in 10.0 mi NE 6.9 mph - N/A   Clear
5:53 PM 95.0 °F 99.0 °F 66.9 °F 40% 29.92 in 10.0 mi NNE 6.9 mph - N/A   Clear
6:53 PM 93.9 °F 100.3 °F 70.0 °F 46% 29.91 in 10.0 mi NE 4.6 mph - N/A   Clear
7:53 PM 90.0 °F 96.9 °F 72.0 °F 55% 29.91 in 10.0 mi Calm Calm - N/A   Clear
8:53 PM 86.0 °F 90.1 °F 69.1 °F 57% 29.93 in 10.0 mi Calm Calm - N/A   Clear
9:53 PM 82.9 °F 85.8 °F 68.0 °F 60% 29.96 in 10.0 mi Calm Calm - N/A   Clear
10:53 PM 80.1 °F 82.7 °F 68.0 °F 67% 29.99 in 10.0 mi Calm Calm - N/A   Clear
11:53 PM 78.1 °F - 68.0 °F 71% 30.00 in 10.0 mi Calm Calm - N/A   Clear